• în Republica Moldova
  • Lista ţărilor
  • Pe 7 zile
  • Temperatura apei
  • Hartă satelitară
  • Meteo pe hartă
  • Widget-uri
  • user-avatar
    Intrare

    Meteo pe oră la Algiers

    Astăzi, 28 Iulie, Vineri

    Timp Temperatura Precipitaţii Vânt Presiune Umiditate
    00:00 +30°C° 0 mm 2 m/s 748 mmHg 42%
    01:00 +30°C° 0 mm 2 m/s 748 mmHg 41%
    02:00 +30°C° 0 mm 2 m/s 747 mmHg 40%
    03:00 +30°C° 0 mm 2 m/s 747 mmHg 39%
    04:00 +30°C° 0 mm 2 m/s 747 mmHg 37%
    05:00 +31°C° 0 mm 2 m/s 748 mmHg 36%
    06:00 +32°C° 0 mm 2 m/s 748 mmHg 35%
    07:00 +35°C° 0 mm 2 m/s 748 mmHg 30%
    08:00 +37°C° 0 mm 2 m/s 748 mmHg 25%
    09:00 +40°C° 0 mm 2 m/s 748 mmHg 20%
    10:00 +42°C° 0 mm 3 m/s 748 mmHg 18%
    11:00 +43°C° 0 mm 4 m/s 748 mmHg 16%
    12:00 +44°C° 0 mm 4 m/s 748 mmHg 14%
    13:00 +45°C° 0 mm 5 m/s 748 mmHg 15%
    14:00 +45°C° 0 mm 5 m/s 747 mmHg 15%
    15:00 +45°C° 0 mm 5 m/s 747 mmHg 16%
    16:00 +43°C° 0 mm 5 m/s 747 mmHg 17%
    17:00 +42°C° 0 mm 5 m/s 747 mmHg 19%
    18:00 +41°C° 0 mm 5 m/s 747 mmHg 20%
    19:00 +38°C° 0 mm 4 m/s 747 mmHg 23%
    20:00 +36°C° 0 mm 4 m/s 747 mmHg 26%
    21:00 +35°C° 0 mm 3 m/s 748 mmHg 28%
    22:00 +35°C° 0 mm 3 m/s 748 mmHg 28%
    23:00 +34°C° 0 mm 3 m/s 748 mmHg 27%

    Mâine, 29 Iulie, Sâmbătă

    Timp Temperatura Precipitaţii Vânt Presiune Umiditate
    00:00 +34°C° 0 mm 3 m/s 748 mmHg 27%
    01:00 +34°C° 0 mm 3 m/s 747 mmHg 27%
    02:00 +34°C° 0 mm 3 m/s 747 mmHg 28%
    03:00 +33°C° 0 mm 3 m/s 747 mmHg 28%
    04:00 +34°C° 0 mm 3 m/s 747 mmHg 29%
    05:00 +34°C° 0 mm 3 m/s 747 mmHg 29%
    06:00 +34°C° 0 mm 3 m/s 748 mmHg 30%
    07:00 +36°C° 0 mm 2 m/s 748 mmHg 28%
    08:00 +37°C° 0 mm 2 m/s 748 mmHg 26%
    09:00 +39°C° 0 mm 2 m/s 748 mmHg 25%
    10:00 +40°C° 0 mm 2 m/s 748 mmHg 24%
    11:00 +42°C° 0 mm 3 m/s 748 mmHg 24%
    12:00 +42°C° 0 mm 3 m/s 748 mmHg 24%
    13:00 +42°C° 0 mm 3 m/s 748 mmHg 26%
    14:00 +42°C° 0 mm 3 m/s 747 mmHg 28%
    15:00 +40°C° 0 mm 3 m/s 747 mmHg 30%
    16:00 +39°C° 0 mm 2 m/s 747 mmHg 34%
    17:00 +38°C° 0 mm 2 m/s 747 mmHg 38%
    18:00 +36°C° 0 mm 1 m/s 747 mmHg 41%
    19:00 +34°C° 0 mm 1 m/s 748 mmHg 45%
    20:00 +33°C° 0 mm 1 m/s 748 mmHg 49%
    21:00 +32°C° 0 mm 1 m/s 748 mmHg 52%
    22:00 +32°C° 0 mm 1 m/s 748 mmHg 52%
    23:00 +32°C° 0 mm 1 m/s 748 mmHg 51%

    Poimâine, 30 Iulie, Duminică

    Timp Temperatura Precipitaţii Vânt Presiune Umiditate
    00:00 +32°C° 0 mm 1 m/s 748 mmHg 51%
    01:00 +31°C° 0 mm 1 m/s 747 mmHg 52%
    02:00 +31°C° 0 mm 1 m/s 747 mmHg 52%
    03:00 +30°C° 0 mm 1 m/s 747 mmHg 53%
    04:00 +31°C° 0 mm 2 m/s 747 mmHg 54%
    05:00 +31°C° 0 mm 2 m/s 747 mmHg 54%
    06:00 +31°C° 0 mm 2 m/s 747 mmHg 54%
    07:00 +34°C° 0 mm 2 m/s 748 mmHg 48%
    08:00 +36°C° 0 mm 2 m/s 748 mmHg 41%
    09:00 +37°C° 0 mm 2 m/s 748 mmHg 34%
    10:00 +39°C° 0 mm 3 m/s 748 mmHg 31%
    11:00 +40°C° 0 mm 3 m/s 748 mmHg 28%
    12:00 +42°C° 0 mm 4 m/s 748 mmHg 25%
    13:00 +42°C° 0 mm 4 m/s 747 mmHg 26%
    14:00 +42°C° 0 mm 4 m/s 747 mmHg 27%
    15:00 +41°C° 0 mm 4 m/s 747 mmHg 27%
    16:00 +39°C° 0 mm 3 m/s 746 mmHg 30%
    17:00 +38°C° 0 mm 2 m/s 746 mmHg 32%
    18:00 +37°C° 0 mm 2 m/s 746 mmHg 35%
    19:00 +36°C° 0 mm 2 m/s 746 mmHg 38%
    20:00 +34°C° 0 mm 1 m/s 747 mmHg 40%
    21:00 +33°C° 0 mm 1 m/s 747 mmHg 43%
    22:00 +34°C° 0 mm 2 m/s 747 mmHg 42%
    23:00 +34°C° 0 mm 2 m/s 746 mmHg 41%

    31 Iulie, Luni

    Timp Temperatura Precipitaţii Vânt Presiune Umiditate
    00:00 +34°C° 0 mm 2 m/s 746 mmHg 41%
    01:00 +34°C° 0 mm 2 m/s 746 mmHg 40%
    02:00 +34°C° 0 mm 2 m/s 745 mmHg 39%
    03:00 +32°C° 0 mm 2 m/s 745 mmHg 38%
    04:00 +34°C° 0 mm 2 m/s 745 mmHg 37%
    05:00 +34°C° 0 mm 2 m/s 745 mmHg 36%
    06:00 +35°C° 0 mm 3 m/s 745 mmHg 34%
    07:00 +37°C° 0 mm 3 m/s 746 mmHg 29%
    08:00 +39°C° 0 mm 3 m/s 746 mmHg 25%
    09:00 +43°C° 0 mm 3 m/s 746 mmHg 20%
    10:00 +44°C° 0 mm 3 m/s 746 mmHg 19%
    11:00 +45°C° 0 mm 3 m/s 745 mmHg 18%
    12:00 +47°C° 0 mm 4 m/s 745 mmHg 16%
    13:00 +47°C° 0 mm 4 m/s 745 mmHg 19%
    14:00 +45°C° 0 mm 3 m/s 745 mmHg 21%
    15:00 +44°C° 0 mm 3 m/s 745 mmHg 23%
    16:00 +43°C° 0 mm 3 m/s 745 mmHg 25%
    17:00 +42°C° 0 mm 3 m/s 745 mmHg 27%
    18:00 +40°C° 0 mm 2 m/s 745 mmHg 29%
    19:00 +39°C° 0 mm 2 m/s 745 mmHg 30%
    20:00 +38°C° 0 mm 2 m/s 746 mmHg 31%
    21:00 +38°C° 0 mm 2 m/s 746 mmHg 32%
    22:00 +38°C° 0 mm 3 m/s 746 mmHg 29%
    23:00 +38°C° 0 mm 4 m/s 746 mmHg 27%

    1 August, Marţi

    Timp Temperatura Precipitaţii Vânt Presiune Umiditate
    00:00 +40°C° 0 mm 5 m/s 746 mmHg 24%
    01:00 +38°C° 0 mm 4 m/s 746 mmHg 27%
    02:00 +37°C° 0 mm 3 m/s 746 mmHg 30%
    03:00 +36°C° 0 mm 3 m/s 746 mmHg 33%
    04:00 +36°C° 0,1 mm 3 m/s 746 mmHg 35%
    05:00 +35°C° 0,1 mm 3 m/s 746 mmHg 37%
    06:00 +35°C° 0,1 mm 3 m/s 747 mmHg 39%
    07:00 +37°C° 0 mm 3 m/s 747 mmHg 34%
    08:00 +39°C° 0 mm 3 m/s 747 mmHg 29%
    09:00 +42°C° 0 mm 3 m/s 747 mmHg 24%
    10:00 +42°C° 0 mm 4 m/s 747 mmHg 25%
    11:00 +42°C° 0 mm 4 m/s 747 mmHg 26%
    12:00 +42°C° 0 mm 4 m/s 747 mmHg 26%
    13:00 +42°C° 0 mm 4 m/s 747 mmHg 28%
    14:00 +40°C° 0 mm 3 m/s 747 mmHg 30%
    15:00 +39°C° 0 mm 3 m/s 747 mmHg 32%
    16:00 +39°C° 0,1 mm 2 m/s 747 mmHg 34%
    17:00 +38°C° 0,1 mm 2 m/s 748 mmHg 35%
    18:00 +37°C° 0,1 mm 2 m/s 748 mmHg 37%
    19:00 +37°C° 0 mm 2 m/s 748 mmHg 38%
    20:00 +35°C° 0 mm 1 m/s 749 mmHg 39%
    21:00 +34°C° 0 mm 1 m/s 749 mmHg 40%
    22:00 +34°C° 0 mm 1 m/s 749 mmHg 39%
    23:00 +35°C° 0 mm 2 m/s 749 mmHg 37%

    2 August, Miercuri

    Timp Temperatura Precipitaţii Vânt Presiune Umiditate
    00:00 +35°C° 0 mm 2 m/s 748 mmHg 36%
    01:00 +35°C° 0 mm 2 m/s 748 mmHg 36%
    02:00 +35°C° 0 mm 2 m/s 748 mmHg 35%
    03:00 +34°C° 0 mm 2 m/s 748 mmHg 35%
    04:00 +34°C° 0 mm 2 m/s 748 mmHg 37%
    05:00 +34°C° 0 mm 2 m/s 748 mmHg 39%
    06:00 +34°C° 0 mm 2 m/s 749 mmHg 41%
    07:00 +36°C° 0 mm 2 m/s 749 mmHg 38%
    08:00 +36°C° 0 mm 1 m/s 749 mmHg 34%
    09:00 +39°C° 0 mm 1 m/s 749 mmHg 30%
    10:00 +40°C° 0 mm 2 m/s 749 mmHg 28%
    11:00 +42°C° 0 mm 2 m/s 749 mmHg 26%
    12:00 +44°C° 0 mm 3 m/s 749 mmHg 24%
    13:00 +43°C° 0 mm 3 m/s 749 mmHg 26%
    14:00 +43°C° 0 mm 3 m/s 748 mmHg 28%
    15:00 +43°C° 0 mm 4 m/s 748 mmHg 30%
    16:00 +40°C° 0 mm 3 m/s 748 mmHg 34%
    17:00 +39°C° 0 mm 3 m/s 748 mmHg 37%
    18:00 +38°C° 0 mm 2 m/s 748 mmHg 40%
    19:00 +36°C° 0 mm 2 m/s 748 mmHg 44%
    20:00 +35°C° 0 mm 2 m/s 749 mmHg 48%
    21:00 +34°C° 0 mm 2 m/s 749 mmHg 52%
    22:00 +34°C° 0 mm 2 m/s 749 mmHg 52%
    23:00 +32°C° 0 mm 1 m/s 749 mmHg 52%
    Arată mai mult